| time (UTC) | temp C | wind direction | speed KPH | gust KPH | rain 1hr cm | rain 24hr cm | rain mn cm | humidity % | barometer mb |
| 20260509031554 | 10 | 330 | 0.0 | 3.2 | 0.00 | 0.00 | 0.00 | 38 | 1013.0 |
| 20260509030105 | 10 | 276 | 0.0 | 1.6 | 0.00 | 0.00 | 0.00 | 41 | 1013.0 |
| 20260509024554 | 10 | 276 | 0.0 | 0.0 | 0.00 | 0.00 | 0.00 | 36 | 1013.1 |
| 20260509023053 | 10 | 275 | 0.0 | 1.6 | 0.00 | 0.00 | 0.00 | 38 | 1013.1 |
| 20260509021553 | 10 | 275 | 0.0 | 0.0 | 0.00 | 0.00 | 0.00 | 41 | 1012.7 |
| 20260509020052 | 10 | 275 | 0.0 | 1.6 | 0.00 | 0.00 | 0.00 | 38 | 1012.5 |
| 20260509014551 | 10 | 275 | 0.0 | 4.8 | 0.00 | 0.00 | 0.00 | 38 | 1012.3 |
| 20260509013108 | 10 | 203 | 0.0 | 0.0 | 0.00 | 0.00 | 0.00 | 43 | 1012.2 |
| 20260509011600 | 11 | 203 | 0.0 | 0.0 | 0.00 | 0.00 | 0.00 | 36 | 1012.2 |
| 20260509010050 | 12 | 203 | 0.0 | 1.6 | 0.00 | 0.00 | 0.00 | 36 | 1012.2 |
| 20260509004549 | 13 | 203 | 0.0 | 0.0 | 0.00 | 0.00 | 0.00 | 30 | 1012.2 |
| 20260509003110 | 15 | 203 | 0.0 | 0.0 | 0.00 | 0.00 | 0.00 | 28 | 1012.3 |
| 20260509001549 | 15 | 293 | 0.0 | 0.0 | 0.00 | 0.00 | 0.00 | 26 | 1012.1 |
| 20260509000106 | 16 | 293 | 0.0 | 0.0 | 0.00 | 0.00 | 0.00 | 26 | 1011.8 |
| 20260508234548 | 18 | 293 | 0.0 | 1.6 | 0.00 | 0.00 | 0.00 | 23 | 1011.7 |
| 20260508233048 | 20 | 276 | 0.0 | 6.4 | 0.00 | 0.00 | 0.00 | 21 | 1011.5 |
| 20260508231550 | 21 | 136 | 0.0 | 4.8 | 0.00 | 0.00 | 0.00 | 19 | 1011.3 |
| 20260508230046 | 21 | 165 | 1.6 | 8.0 | 0.00 | 0.00 | 0.00 | 18 | 1011.1 |
| 20260508224546 | 21 | 138 | 1.6 | 12.9 | 0.00 | 0.00 | 0.00 | 18 | 1010.9 |
| 20260508223045 | 22 | 155 | 0.0 | 12.9 | 0.00 | 0.00 | 0.00 | 17 | 1011.0 |
| 20260508221544 | 22 | 141 | 4.8 | 17.7 | 0.00 | 0.00 | 0.00 | 15 | 1010.6 |
| 20260508220044 | 22 | 159 | 4.8 | 16.1 | 0.00 | 0.00 | 0.00 | 15 | 1010.3 |
| 20260508214543 | 22 | 199 | 6.4 | 16.1 | 0.00 | 0.00 | 0.00 | 14 | 1010.2 |
| 20260508213042 | 23 | 188 | 8.0 | 17.7 | 0.00 | 0.00 | 0.00 | 14 | 1010.0 |
| 20260508211544 | 23 | 219 | 4.8 | 16.1 | 0.00 | 0.00 | 0.00 | 14 | 1009.8 |
| 20260508210041 | 23 | 224 | 3.2 | 9.7 | 0.00 | 0.00 | 0.00 | 14 | 1009.8 |
| 20260508204540 | 24 | 194 | 6.4 | 14.5 | 0.00 | 0.00 | 0.00 | 13 | 1009.9 |
| 20260508203047 | 24 | 219 | 8.0 | 19.3 | 0.00 | 0.00 | 0.00 | 12 | 1009.7 |
| 20260508201540 | 25 | 165 | 4.8 | 16.1 | 0.00 | 0.00 | 0.00 | 12 | 1009.7 |
| 20260508200046 | 26 | 180 | 6.4 | 16.1 | 0.00 | 0.00 | 0.00 | 11 | 1009.8 |
| 20260508194538 | 26 | 155 | 9.7 | 16.1 | 0.00 | 0.00 | 0.00 | 11 | 1010.0 |
| 20260508193043 | 26 | 194 | 8.0 | 19.3 | 0.00 | 0.00 | 0.00 | 11 | 1010.1 |
| 20260508191540 | 26 | 134 | 8.0 | 17.7 | 0.00 | 0.00 | 0.00 | 10 | 1010.0 |
| 20260508190043 | 26 | 163 | 4.8 | 16.1 | 0.00 | 0.00 | 0.00 | 10 | 1009.7 |
| 20260508184536 | 26 | 170 | 4.8 | 19.3 | 0.00 | 0.00 | 0.00 | 11 | 1009.9 |
| 20260508183032 | 26 | 190 | 4.8 | 20.9 | 0.00 | 0.00 | 0.00 | 11 | 1009.9 |
| 20260508181530 | 27 | 186 | 4.8 | 14.5 | 0.00 | 0.00 | 0.00 | 10 | 1009.9 |
| 20260508180028 | 26 | 188 | 4.8 | 16.1 | 0.00 | 0.00 | 0.00 | 10 | 1010.2 |
| 20260508174540 | 27 | 175 | 6.4 | 14.5 | 0.00 | 0.00 | 0.00 | 10 | 1010.4 |
| 20260508173025 | 27 | 175 | 6.4 | 16.1 | 0.00 | 0.00 | 0.00 | 9 | 1010.5 |
| 20260508171523 | 26 | 154 | 4.8 | 12.9 | 0.00 | 0.00 | 0.00 | 10 | 1010.7 |
| 20260508170020 | 26 | 135 | 1.6 | 4.8 | 0.00 | 0.00 | 0.00 | 9 | 1011.0 |
| 20260508164515 | 26 | 149 | 0.0 | 4.8 | 0.00 | 0.00 | 0.00 | 9 | 1011.3 |
| 20260508163030 | 26 | 84 | 0.0 | 1.6 | 0.00 | 0.00 | 0.00 | 9 | 1011.8 |
| 20260508161508 | 25 | 279 | 0.0 | 3.2 | 0.00 | 0.00 | 0.00 | 9 | 1012.0 |
| 20260508160004 | 25 | 180 | 0.0 | 1.6 | 0.00 | 0.00 | 0.00 | 10 | 1012.3 |
| 20260508154600 | 25 | 278 | 0.0 | 1.6 | 0.00 | 0.00 | 0.00 | 11 | 1012.4 |
| 20260508153057 | 23 | 65 | 0.0 | 3.2 | 0.00 | 0.00 | 0.00 | 12 | 1012.6 |
| 20260508151550 | 22 | 219 | 0.0 | 0.0 | 0.00 | 0.00 | 0.00 | 12 | 1013.1 |
| 20260508150046 | 22 | 284 | 0.0 | 1.6 | 0.00 | 0.00 | 0.00 | 13 | 1013.4 |
| 20260508144543 | 21 | 240 | 0.0 | 1.6 | 0.00 | 0.00 | 0.00 | 13 | 1013.7 |
| 20260508143039 | 20 | 191 | 0.0 | 0.0 | 0.00 | 0.00 | 0.00 | 14 | 1014.2 |
| 20260508141536 | 20 | 285 | 0.0 | 1.6 | 0.00 | 0.00 | 0.00 | 15 | 1014.2 |
| 20260508140033 | 18 | 5 | 0.0 | 3.2 | 0.00 | 0.00 | 0.00 | 17 | 1014.5 |
| 20260508134533 | 17 | 19 | 0.0 | 3.2 | 0.00 | 0.00 | 0.00 | 18 | 1014.7 |
| 20260508133023 | 16 | 34 | 0.0 | 3.2 | 0.00 | 0.00 | 0.00 | 19 | 1014.5 |
| 20260508131519 | 14 | 340 | 0.0 | 1.6 | 0.00 | 0.00 | 0.00 | 22 | 1014.6 |
| 20260508130015 | 12 | 27 | 0.0 | 3.2 | 0.00 | 0.00 | 0.00 | 29 | 1014.7 |
| 20260508124510 | 9 | 276 | 0.0 | 0.0 | 0.00 | 0.00 | 0.00 | 33 | 1014.7 |
| 20260508123009 | 7 | 276 | 1.6 | 4.8 | 0.00 | 0.00 | 0.00 | 36 | 1014.5 |
| 20260508121504 | 8 | 276 | 0.0 | 0.0 | 0.00 | 0.00 | 0.00 | 38 | 1014.2 |
| 20260508120003 | 8 | 276 | 0.0 | 1.6 | 0.00 | 0.00 | 0.00 | 35 | 1014.2 |
| 20260508114600 | 6 | 276 | 0.0 | 4.8 | 0.00 | 0.00 | 0.00 | 37 | 1014.0 |
| 20260508113103 | 6 | 276 | 0.0 | 1.6 | 0.00 | 0.00 | 0.00 | 45 | 1013.9 |
| 20260508111659 | 6 | 276 | 0.0 | 3.2 | 0.00 | 0.00 | 0.00 | 47 | 1013.9 |
| 20260508110128 | 6 | 276 | 0.0 | 0.0 | 0.00 | 0.00 | 0.00 | 45 | 1013.8 |
| 20260508104603 | 6 | 276 | 0.0 | 0.0 | 0.00 | 0.00 | 0.00 | 43 | 1013.7 |
| 20260508103058 | 6 | 276 | 0.0 | 3.2 | 0.00 | 0.00 | 0.00 | 47 | 1013.8 |
| 20260508101557 | 6 | 276 | 0.0 | 0.0 | 0.00 | 0.00 | 0.00 | 47 | 1014.0 |
| 20260508100054 | 6 | 276 | 0.0 | 0.0 | 0.00 | 0.00 | 0.00 | 47 | 1013.9 |
| 20260508094556 | 6 | 276 | 0.0 | 1.6 | 0.00 | 0.00 | 0.00 | 46 | 1014.0 |
| 20260508093152 | 6 | 276 | 0.0 | 0.0 | 0.00 | 0.00 | 0.00 | 46 | 1014.0 |
| 20260508091551 | 6 | 276 | 0.0 | 1.6 | 0.00 | 0.00 | 0.00 | 45 | 1014.0 |
| 20260508090107 | 7 | 276 | 0.0 | 0.0 | 0.00 | 0.00 | 0.00 | 40 | 1014.0 |
| 20260508084550 | 7 | 276 | 0.0 | 4.8 | 0.00 | 0.00 | 0.00 | 42 | 1014.0 |
| 20260508083048 | 7 | 276 | 0.0 | 3.2 | 0.00 | 0.00 | 0.00 | 43 | 1014.1 |
| 20260508081557 | 7 | 276 | 0.0 | 3.2 | 0.00 | 0.00 | 0.00 | 40 | 1014.2 |
| 20260508080046 | 7 | 276 | 0.0 | 1.6 | 0.00 | 0.00 | 0.00 | 42 | 1014.3 |
| 20260508074645 | 7 | 276 | 0.0 | 4.8 | 0.00 | 0.00 | 0.00 | 41 | 1014.4 |
| 20260508073043 | 5 | 276 | 0.0 | 3.2 | 0.00 | 0.00 | 0.00 | 48 | 1014.7 |
| 20260508071543 | 5 | 276 | 0.0 | 0.0 | 0.00 | 0.00 | 0.00 | 50 | 1014.8 |
| 20260508070042 | 5 | 276 | 0.0 | 0.0 | 0.00 | 0.00 | 0.00 | 53 | 1014.7 |
| 20260508064540 | 5 | 276 | 0.0 | 0.0 | 0.00 | 0.00 | 0.00 | 55 | 1014.8 |
| 20260508063038 | 5 | 276 | 0.0 | 0.0 | 0.00 | 0.00 | 0.00 | 53 | 1014.9 |
| 20260508061536 | 6 | 276 | 0.0 | 1.6 | 0.00 | 0.00 | 0.00 | 51 | 1014.9 |
| 20260508060134 | 6 | 276 | 0.0 | 1.6 | 0.00 | 0.00 | 0.00 | 47 | 1015.0 |
| 20260508054538 | 7 | 276 | 0.0 | 0.0 | 0.00 | 0.00 | 0.00 | 46 | 1014.6 |
| 20260508053031 | 6 | 276 | 0.0 | 9.7 | 0.00 | 0.00 | 0.00 | 49 | 1014.5 |
| 20260508051529 | 6 | 280 | 0.0 | 4.8 | 0.00 | 0.00 | 0.00 | 50 | 1014.3 |
| 20260508050028 | 6 | 309 | 0.0 | 1.6 | 0.00 | 0.00 | 0.00 | 56 | 1014.6 |
| 20260508044525 | 6 | 309 | 0.0 | 1.6 | 0.00 | 0.00 | 0.00 | 52 | 1014.8 |
| 20260508043022 | 7 | 309 | 0.0 | 1.6 | 0.00 | 0.00 | 0.00 | 53 | 1014.6 |
| 20260508041623 | 7 | 309 | 0.0 | 3.2 | 0.00 | 0.00 | 0.00 | 53 | 1014.8 |
| 20260508040019 | 7 | 309 | 0.0 | 3.2 | 0.00 | 0.00 | 0.00 | 53 | 1014.3 |
| 20260508034519 | 7 | 309 | 0.0 | 3.2 | 0.00 | 0.00 | 0.00 | 53 | 1014.6 |
| 20260508033024 | 8 | 309 | 0.0 | 0.0 | 0.00 | 0.00 | 0.00 | 51 | 1014.9 |